Orenge 7 — JL6148 — position and weather

sailwx.info

Track history (hours):
 
Tides and Currents Weather Stations Pressure Air Temp Water Temp Dewpoint Dewpoint Depression Visibility Wind Speed Wind Dir Waves Ship Positions

Orenge 7

Last reported at 2014-Sep-01 23:31 UTC. Time now 2014-Sep-01 23:47 UTC.
Position N 34°37' E 135°26'.

Length 163 m; draft 4.9 m.

Type: Passenger vessel. MMSI: 431500186.

Date/timePositionNaut miles runAvg speedWind from/ knotsBaromVisibWave heightAir tempDewpointWater temp
2014-Sep-01 23:31N 34°37' E 135°26'0 0.0
2014-Sep-01 22:31N 34°37' E 135°26'0 0.0
2014-Sep-01 21:25N 34°37' E 135°26'6 6.9
2014-Sep-01 20:34N 34°36' E 135°19'1817.9
2014-Sep-01 19:33N 34°36' E 134°57'1 0.0
2014-Aug-31 14:33N 34°37' E 134°57'1919.2
2014-Aug-31 13:34N 34°37' E 135°21'4 2.1
2014-Aug-31 11:33N 34°37' E 135°26'0 0.0
2014-Aug-31 10:21N 34°37' E 135°26'0 0.0
2014-Aug-31 09:33N 34°37' E 135°26'0 0.0
2014-Aug-31 08:27N 34°37' E 135°26'0 0.0
2014-Aug-31 07:33N 34°37' E 135°26'0 0.0
2014-Aug-31 06:33N 34°37' E 135°26'0 0.0
2014-Aug-31 05:33N 34°37' E 135°26'0 0.0
2014-Aug-31 04:33N 34°37' E 135°26'0 0.0
2014-Aug-31 03:33N 34°37' E 135°26'0 0.0
2014-Aug-31 02:27N 34°37' E 135°26'0 0.0
2014-Aug-31 01:27N 34°37' E 135°26'0 0.0
2014-Aug-31 00:27N 34°37' E 135°26'0 0.0
2014-Aug-30 23:33N 34°37' E 135°26'0 0.0
2014-Aug-30 21:15N 34°37' E 135°26'6 8.2
2014-Aug-30 20:33N 34°36' E 135°19'1818.3
2014-Aug-30 19:33N 34°36' E 134°57'2 0.1
2014-Aug-29 14:33N 34°36' E 134°55'1919.5
2014-Aug-29 13:33N 34°37' E 135°18'6 6.0
2014-Aug-29 12:30N 34°37' E 135°26'0 0.0
2014-Aug-29 11:30N 34°37' E 135°26'0 0.0
2014-Aug-29 10:24N 34°37' E 135°26'0 0.0
2014-Aug-29 09:30N 34°37' E 135°26'0 0.0
2014-Aug-29 08:30N 34°37' E 135°26'0 0.0
2014-Aug-29 07:30N 34°37' E 135°26'0 0.0
2014-Aug-29 06:30N 34°37' E 135°26'0 0.0
2014-Aug-29 05:30N 34°37' E 135°26'0 0.0
2014-Aug-29 04:30N 34°37' E 135°26'0 0.0
2014-Aug-29 03:30N 34°37' E 135°26'0 0.0
2014-Aug-29 02:30N 34°37' E 135°26'0 0.0
2014-Aug-29 01:30N 34°37' E 135°26'0 0.0
2014-Aug-29 00:30N 34°37' E 135°26'0 0.0
2014-Aug-28 23:30N 34°37' E 135°26'0 0.0
2014-Aug-28 22:30N 34°37' E 135°26'0 0.0
2014-Aug-28 21:30N 34°37' E 135°26'5 5.0
2014-Aug-28 20:33N 34°36' E 135°20'1918.5
2014-Aug-28 19:33N 34°37' E 134°58'1 0.0
2014-Aug-27 14:33N 34°37' E 134°57'1818.4
2014-Aug-27 13:33N 34°37' E 135°19'6 5.3
2014-Aug-27 12:29N 34°37' E 135°26'0 0.0
2014-Aug-27 11:29N 34°37' E 135°26'0 0.0
2014-Aug-27 10:29N 34°37' E 135°26'0 0.0
2014-Aug-27 09:29N 34°37' E 135°26'0 0.0
2014-Aug-27 08:29N 34°37' E 135°26'0 0.0
2014-Aug-27 07:29N 34°37' E 135°26'0 0.0
2014-Aug-27 06:23N 34°37' E 135°26'0 0.0
2014-Aug-27 05:29N 34°37' E 135°26'0 0.0
2014-Aug-27 04:29N 34°37' E 135°26'0 0.0
2014-Aug-27 03:29N 34°37' E 135°26'0 0.0
2014-Aug-27 02:29N 34°37' E 135°26'0 0.0
2014-Aug-27 01:29N 34°37' E 135°26'0 0.0
2014-Aug-27 00:32N 34°37' E 135°26'0 0.0
2014-Aug-26 23:32N 34°37' E 135°26'0 0.0
2014-Aug-26 22:26N 34°37' E 135°26'0 0.0
2014-Aug-26 21:32N 34°37' E 135°26'5 5.5
2014-Aug-26 20:33N 34°36' E 135°19'1717.5
2014-Aug-26 19:33N 34°37' E 134°58'2 0.1
2014-Aug-25 14:33N 34°37' E 134°56'1918.7
2014-Aug-25 13:33N 34°37' E 135°19'6 5.5
2014-Aug-25 12:30N 34°37' E 135°26'0 0.0
2014-Aug-25 11:24N 34°37' E 135°26'0 0.0
2014-Aug-25 10:30N 34°37' E 135°26'0 0.0
2014-Aug-25 09:24N 34°37' E 135°26'0 0.0
2014-Aug-25 08:30N 34°37' E 135°26'0 0.0
2014-Aug-25 07:30N 34°37' E 135°26'0 0.0
2014-Aug-25 06:30N 34°37' E 135°26'0 0.0
2014-Aug-25 05:12N 34°37' E 135°26'0 0.0
2014-Aug-25 04:24N 34°37' E 135°26'0 0.0
2014-Aug-25 03:30N 34°37' E 135°26'0 0.0
2014-Aug-25 02:24N 34°37' E 135°26'0 0.0
2014-Aug-25 01:30N 34°37' E 135°26'0 0.0
2014-Aug-25 00:30N 34°37' E 135°26'0 0.0
2014-Aug-24 23:30N 34°37' E 135°26'0 0.0
2014-Aug-24 22:30N 34°37' E 135°26'0 0.0
2014-Aug-24 21:30N 34°37' E 135°26'7 7.5
2014-Aug-24 20:33N 34°36' E 135°17'1716.9
2014-Aug-24 19:33N 34°36' E 134°57'24 0.6
2014-Aug-23 03:29N 34°37' E 135°26'0 0.0
2014-Aug-23 02:29N 34°37' E 135°26'0 0.0
2014-Aug-23 01:29N 34°37' E 135°26'0 0.0
2014-Aug-23 00:29N 34°37' E 135°26'  
Track history (hours):
 
Tides and Currents Weather Stations Pressure Air Temp Water Temp Dewpoint Dewpoint Depression Visibility Wind Speed Wind Dir Waves Ship Positions

Orenge 7

Last reported at 2014-Sep-01 23:31 UTC. Time now 2014-Sep-01 23:47 UTC.
Position N 34°37' E 135°26'.

Length 163 m; draft 4.9 m.

Type: Passenger vessel. MMSI: 431500186.

Date/timePositionNaut miles runAvg speedWind from/ knotsBaromVisibWave heightAir tempDewpointWater temp
2014-Sep-01 23:31N 34°37' E 135°26'0 0.0
2014-Sep-01 22:31N 34°37' E 135°26'0 0.0
2014-Sep-01 21:25N 34°37' E 135°26'6 6.9
2014-Sep-01 20:34N 34°36' E 135°19'1817.9
2014-Sep-01 19:33N 34°36' E 134°57'1 0.0
2014-Aug-31 14:33N 34°37' E 134°57'1919.2
2014-Aug-31 13:34N 34°37' E 135°21'4 2.1
2014-Aug-31 11:33N 34°37' E 135°26'0 0.0
2014-Aug-31 10:21N 34°37' E 135°26'0 0.0
2014-Aug-31 09:33N 34°37' E 135°26'0 0.0
2014-Aug-31 08:27N 34°37' E 135°26'0 0.0
2014-Aug-31 07:33N 34°37' E 135°26'0 0.0
2014-Aug-31 06:33N 34°37' E 135°26'0 0.0
2014-Aug-31 05:33N 34°37' E 135°26'0 0.0
2014-Aug-31 04:33N 34°37' E 135°26'0 0.0
2014-Aug-31 03:33N 34°37' E 135°26'0 0.0
2014-Aug-31 02:27N 34°37' E 135°26'0 0.0
2014-Aug-31 01:27N 34°37' E 135°26'0 0.0
2014-Aug-31 00:27N 34°37' E 135°26'0 0.0
2014-Aug-30 23:33N 34°37' E 135°26'0 0.0
2014-Aug-30 21:15N 34°37' E 135°26'6 8.2
2014-Aug-30 20:33N 34°36' E 135°19'1818.3
2014-Aug-30 19:33N 34°36' E 134°57'2 0.1
2014-Aug-29 14:33N 34°36' E 134°55'1919.5
2014-Aug-29 13:33N 34°37' E 135°18'6 6.0
2014-Aug-29 12:30N 34°37' E 135°26'0 0.0
2014-Aug-29 11:30N 34°37' E 135°26'0 0.0
2014-Aug-29 10:24N 34°37' E 135°26'0 0.0
2014-Aug-29 09:30N 34°37' E 135°26'0 0.0
2014-Aug-29 08:30N 34°37' E 135°26'0 0.0
2014-Aug-29 07:30N 34°37' E 135°26'0 0.0
2014-Aug-29 06:30N 34°37' E 135°26'0 0.0
2014-Aug-29 05:30N 34°37' E 135°26'0 0.0
2014-Aug-29 04:30N 34°37' E 135°26'0 0.0
2014-Aug-29 03:30N 34°37' E 135°26'0 0.0
2014-Aug-29 02:30N 34°37' E 135°26'0 0.0
2014-Aug-29 01:30N 34°37' E 135°26'0 0.0
2014-Aug-29 00:30N 34°37' E 135°26'0 0.0
2014-Aug-28 23:30N 34°37' E 135°26'0 0.0
2014-Aug-28 22:30N 34°37' E 135°26'0 0.0
2014-Aug-28 21:30N 34°37' E 135°26'5 5.0
2014-Aug-28 20:33N 34°36' E 135°20'1918.5
2014-Aug-28 19:33N 34°37' E 134°58'1 0.0
2014-Aug-27 14:33N 34°37' E 134°57'1818.4
2014-Aug-27 13:33N 34°37' E 135°19'6 5.3
2014-Aug-27 12:29N 34°37' E 135°26'0 0.0
2014-Aug-27 11:29N 34°37' E 135°26'0 0.0
2014-Aug-27 10:29N 34°37' E 135°26'0 0.0
2014-Aug-27 09:29N 34°37' E 135°26'0 0.0
2014-Aug-27 08:29N 34°37' E 135°26'0 0.0
2014-Aug-27 07:29N 34°37' E 135°26'0 0.0
2014-Aug-27 06:23N 34°37' E 135°26'0 0.0
2014-Aug-27 05:29N 34°37' E 135°26'0 0.0
2014-Aug-27 04:29N 34°37' E 135°26'0 0.0
2014-Aug-27 03:29N 34°37' E 135°26'0 0.0
2014-Aug-27 02:29N 34°37' E 135°26'0 0.0
2014-Aug-27 01:29N 34°37' E 135°26'0 0.0
2014-Aug-27 00:32N 34°37' E 135°26'0 0.0
2014-Aug-26 23:32N 34°37' E 135°26'0 0.0
2014-Aug-26 22:26N 34°37' E 135°26'0 0.0
2014-Aug-26 21:32N 34°37' E 135°26'5 5.5
2014-Aug-26 20:33N 34°36' E 135°19'1717.5
2014-Aug-26 19:33N 34°37' E 134°58'2 0.1
2014-Aug-25 14:33N 34°37' E 134°56'1918.7
2014-Aug-25 13:33N 34°37' E 135°19'6 5.5
2014-Aug-25 12:30N 34°37' E 135°26'0 0.0
2014-Aug-25 11:24N 34°37' E 135°26'0 0.0
2014-Aug-25 10:30N 34°37' E 135°26'0 0.0
2014-Aug-25 09:24N 34°37' E 135°26'0 0.0
2014-Aug-25 08:30N 34°37' E 135°26'0 0.0
2014-Aug-25 07:30N 34°37' E 135°26'0 0.0
2014-Aug-25 06:30N 34°37' E 135°26'0 0.0
2014-Aug-25 05:12N 34°37' E 135°26'0 0.0
2014-Aug-25 04:24N 34°37' E 135°26'0 0.0
2014-Aug-25 03:30N 34°37' E 135°26'0 0.0
2014-Aug-25 02:24N 34°37' E 135°26'0 0.0
2014-Aug-25 01:30N 34°37' E 135°26'0 0.0
2014-Aug-25 00:30N 34°37' E 135°26'0 0.0
2014-Aug-24 23:30N 34°37' E 135°26'0 0.0
2014-Aug-24 22:30N 34°37' E 135°26'0 0.0
2014-Aug-24 21:30N 34°37' E 135°26'7 7.5
2014-Aug-24 20:33N 34°36' E 135°17'1716.9
2014-Aug-24 19:33N 34°36' E 134°57'24 0.6
2014-Aug-23 03:29N 34°37' E 135°26'0 0.0
2014-Aug-23 02:29N 34°37' E 135°26'0 0.0
2014-Aug-23 01:29N 34°37' E 135°26'0 0.0
2014-Aug-23 00:29N 34°37' E 135°26'  

Dump ship's entire track history